User: anonymous   Login
Location: Unspecified
(0.0000°N, 0.0000°E)
Time: 05:06:36
(UTC+00:00)
Language:

BIRD GG - Orbit

View from above orbital plane
View from above orbital plane
View from above satellite
View from above satellite

Ground track
Ground track

The orbit is defined by the following mean orbital elements,

1 42821U 98067MV  19141.12262304  .05646920  12275-4  57384-3 0  9996
2 42821  51.6069  51.4641 0009625 251.4299 108.5681 16.36973497107249
Epoch (UTC): 21 May 2019 02:56:34
Eccentricity: 0.0009625
inclination: 51.6069°
perigee height: 167 km
apogee height: 180 km
right ascension of ascending node: 51.4641°
argument of perigee: 251.4299°
revolutions per day: 16.36973497
mean anomaly at epoch: 108.5681°

The dashed part of the orbit path shows where the satellite is in the earth's shadow,  

DLR